F5ZQC-13 Weather Reports


Display with metric or nautical units.
time (UTC)temp
F
wind
direction
speed
MPH
gust
MPH
rain 1hr
in
rain 24hr
in
rain mn
in
humidity
%
barometer
mb
20260502220751 62 270 2.0 4.0 0.00 0.00 0.00 53 1013.1
20260502220347 62 292 1.0 2.0 0.00 0.00 0.00 53 1013.2
20260502220144 62 270 1.0 2.0 0.00 0.00 0.00 54 1013.2
20260502215951 62 292 2.0 3.0 0.00 0.00 0.00 53 1013.1
20260502215741 62 270 1.0 3.0 0.00 0.00 0.00 53 1013.0
20260502215536 62 270 1.0 3.0 0.00 0.00 0.00 53 1013.1
20260502215336 62 270 0.0 3.0 0.00 0.00 0.00 53 1013.2
20260502215117 62 315 1.0 125.0 0.00 0.00 0.00 53 1013.1
20260502215014 62 270 125.0 125.0 0.00 0.00 0.00 52 1012.8
20260502214934 62 326 2.0 3.0 0.00 0.00 0.00 52 1013.0
20260502214330 62 270 2.0 3.0 0.00 0.00 0.00 53 1013.1
20260502214125 63 292 2.0 4.0 0.00 0.00 0.00 54 1013.2
20260502213721 63 292 3.0 125.0 0.00 0.00 0.00 53 1013.1
20260502213519 63 270 2.0 125.0 0.00 0.00 0.00 52 1013.1
20260502213417 63 270 125.0 125.0 0.00 0.00 0.00 51 1013.2
20260502213226 63 292 1.0 3.0 0.00 0.00 0.00 52 1013.0
20260502213023 63 270 3.0 3.0 0.00 0.00 0.00 51 1013.3
20260502212821 63 270 2.0 3.0 0.00 0.00 0.00 52 1013.3
20260502212619 63 315 2.0 3.0 0.00 0.00 0.00 52 1013.2
20260502212214 63 292 1.0 129.0 0.00 0.00 0.00 51 1013.2
20260502211940 63 270 2.0 3.0 0.00 0.00 0.00 51 1013.2
20260502211732 63 270 3.0 5.0 0.00 0.00 0.00 51 1013.4
20260502211531 63 270 4.0 5.0 0.00 0.00 0.00 51 1013.3
20260502211329 63 270 3.0 127.0 0.00 0.00 0.00 50 1013.4
20260502211127 63 270 4.0 127.0 0.00 0.00 0.00 50 1013.4
20260502211023 63 315 127.0 127.0 0.00 0.00 0.00 50 1013.3
20260502210907 63 270 3.0 5.0 0.00 0.00 0.00 50 1013.3
20260502210705 63 270 4.0 5.0 0.00 0.00 0.00 50 1013.3
20260502210301 63 270 2.0 3.0 0.00 0.00 0.00 49 1013.5
20260502210058 63 270 2.0 2.0 0.00 0.00 0.00 49 1013.5
20260502210004 63 315 1.0 4.0 0.00 0.00 0.00 49 1013.2
20260502205759 63 0 3.0 4.0 0.00 0.00 0.00 49 1013.4
20260502205559 63 270 2.0 4.0 0.00 0.00 0.00 49 1013.2
20260502205356 63 315 0.0 5.0 0.00 0.00 0.00 48 1013.4
20260502204655 64 270 4.0 7.0 0.00 0.00 0.00 48 1013.3
20260502204539 64 270 4.0 7.0 0.00 0.00 0.00 48 1013.3
20260502204338 64 315 4.0 5.0 0.00 0.00 0.00 48 1013.4
20260502204137 64 303 2.0 2.0 0.00 0.00 0.00 47 1013.6
20260502204006 64 326 1.0 4.0 0.00 0.00 0.00 48 1013.5
20260502203933 64 315 0.0 0.0 0.00 0.00 0.00 47 1013.5
20260502203833 64 326 1.0 4.0 0.00 0.00 0.00 48 1013.5
20260502203634 64 303 0.0 4.0 0.00 0.00 0.00 47 1013.4
20260502203227 64 315 1.0 3.0 0.00 0.00 0.00 47 1013.4
20260502202822 64 270 5.0 6.0 0.00 0.00 0.00 47 1013.3
20260502202620 64 270 4.0 5.0 0.00 0.00 0.00 46 1013.4
20260502202215 64 337 0.0 1.0 0.00 0.00 0.00 46 1013.1
20260502201857 64 348 0.0 1.0 0.00 0.00 0.00 46 1013.1
20260502201655 64 315 0.0 1.0 0.00 0.00 0.00 46 1013.1
20260502201453 64 315 0.0 1.0 0.00 0.00 0.00 46 1013.1
20260502201251 64 292 0.0 0.0 0.00 0.00 0.00 45 1013.1
20260502201049 64 303 0.0 2.0 0.00 0.00 0.00 44 1013.1
20260502200846 65 303 0.0 2.0 0.00 0.00 0.00 45 1013.2
20260502200644 65 303 2.0 3.0 0.00 0.00 0.00 44 1013.1
20260502200442 65 303 2.0 127.0 0.00 0.00 0.00 45 1013.1
20260502200240 65 315 3.0 127.0 0.00 0.00 0.00 44 1013.2
20260502200042 65 315 1.0 7.0 0.00 0.00 0.00 44 1013.2
20260502195839 65 315 0.0 7.0 0.00 0.00 0.00 44 1013.4
20260502195738 65 225 3.0 6.0 0.00 0.00 0.00 44 1013.5
20260502195644 65 225 3.0 6.0 0.00 0.00 0.00 44 1013.5
20260502195441 65 270 1.0 8.0 0.00 0.00 0.00 44 1013.4
20260502194835 65 292 3.0 9.0 0.00 0.00 0.00 43 1013.4
20260502194626 65 292 7.0 9.0 0.00 0.00 0.00 43 1013.3
20260502194222 66 292 8.0 8.0 0.00 0.00 0.00 42 1013.2
20260502194019 66 270 3.0 9.0 0.00 0.00 0.00 42 1013.3
20260502192805 66 292 8.0 8.0 0.00 0.00 0.00 40 1013.0
20260502192643 66 281 0.0 8.0 0.00 0.00 0.00 39 1013.1
20260502192441 66 315 5.0 8.0 0.00 0.00 0.00 40 1012.9
20260502192036 67 270 4.0 7.0 0.00 0.00 0.00 38 1012.8
20260502191834 67 315 3.0 6.0 0.00 0.00 0.00 37 1012.8
20260502191737 67 270 3.0 5.0 0.00 0.00 0.00 37 1012.8
20260502191632 67 270 3.0 5.0 0.00 0.00 0.00 37 1012.8
20260502191430 67 292 3.0 4.0 0.00 0.00 0.00 36 1012.7
20260502191228 67 270 1.0 6.0 0.00 0.00 0.00 36 1012.8
20260502191025 67 270 3.0 7.0 0.00 0.00 0.00 35 1012.8
20260502190621 67 270 2.0 6.0 0.00 0.00 0.00 34 1012.8
20260502190419 67 270 5.0 6.0 0.00 0.00 0.00 33 1012.8
20260502190013 67 292 4.0 5.0 0.00 0.00 0.00 32 1012.7
20260502185811 67 270 4.0 6.0 0.00 0.00 0.00 32 1012.7
20260502185609 67 315 4.0 9.0 0.00 0.00 0.00 31 1012.8
20260502185205 67 270 5.0 11.0 0.00 0.00 0.00 32 1012.7
20260502184800 67 225 7.0 17.0 0.00 0.00 0.00 32 1012.5
20260502184356 67 225 8.0 12.0 0.00 0.00 0.00 32 1012.5
20260502184154 67 236 5.0 12.0 0.00 0.00 0.00 32 1012.5
20260502183749 67 225 8.0 15.0 0.00 0.00 0.00 32 1012.5
20260502183547 67 225 6.0 16.0 0.00 0.00 0.00 32 1012.4
20260502183345 67 236 11.0 16.0 0.00 0.00 0.00 32 1012.3
20260502183142 67 225 16.0 16.0 0.00 0.00 0.00 32 1012.4
20260502182939 67 225 9.0 14.0 0.00 0.00 0.00 32 1012.4
20260502182334 68 225 10.0 16.0 0.00 0.00 0.00 32 1012.3
20260502182131 68 236 12.0 16.0 0.00 0.00 0.00 32 1012.4
20260502181928 68 247 10.0 22.0 0.00 0.00 0.00 32 1012.3
20260502181837 68 236 12.0 22.0 0.00 0.00 0.00 31 1012.3
20260502181727 68 236 12.0 22.0 0.00 0.00 0.00 31 1012.3
20260502181614 68 225 22.0 22.0 0.00 0.00 0.00 31 1012.2
20260502181210 68 225 14.0 35.0 0.00 0.00 0.00 31 1012.4
20260502181007 68 225 17.0 35.0 0.00 0.00 0.00 31 1012.4
20260502180803 68 225 14.0 36.0 0.00 0.00 0.00 31 1012.4
20260502180601 69 225 20.0 36.0 0.00 0.00 0.00 31 1012.3
20260502180305 69 225 14.0 34.0 0.00 0.00 0.00 32 1012.2
20260502170419 70 225 3.0 4.0 0.00 0.00 0.00 41 1012.3
20260502170216 70 225 1.0 6.0 0.00 0.00 0.00 41 1012.4
20260502164154 70 247 5.0 7.0 0.00 0.00 0.00 41 1012.6
20260502163952 70 247 2.0 7.0 0.00 0.00 0.00 41 1012.7
20260502163749 70 225 5.0 7.0 0.00 0.00 0.00 41 1012.8
20260502163547 70 315 2.0 5.0 0.00 0.00 0.00 40 1012.7
20260502162945 70 315 7.0 10.0 0.00 0.00 0.00 40 1012.5
20260502162536 70 337 5.0 7.0 0.00 0.00 0.00 39 1012.5
20260502162131 70 225 5.0 9.0 0.00 0.00 0.00 38 1012.6
20260502161929 70 236 4.0 9.0 0.00 0.00 0.00 40 1012.7
20260502161727 70 326 7.0 7.0 0.00 0.00 0.00 39 1012.8
20260502161525 71 225 5.0 6.0 0.00 0.00 0.00 39 1012.9
20260502161322 71 258 4.0 8.0 0.00 0.00 0.00 40 1012.8
20260502160917 71 292 4.0 7.0 0.00 0.00 0.00 39 1012.9
20260502160716 71 292 4.0 5.0 0.00 0.00 0.00 39 1012.9
20260502160108 71 315 0.0 6.0 0.00 0.00 0.00 39 1013.1
20260502152226 74 315 8.0 8.0 0.00 0.00 0.00 36 1013.2
20260502151821 74 315 3.0 5.0 0.00 0.00 0.00 36 1013.2
20260502151619 74 315 3.0 5.0 0.00 0.00 0.00 36 1013.2
20260502151417 74 315 4.0 5.0 0.00 0.00 0.00 36 1013.3
20260502151214 74 270 4.0 6.0 0.00 0.00 0.00 36 1013.3
20260502151012 75 292 4.0 10.0 0.00 0.00 0.00 36 1013.3
20260502150608 75 292 7.0 16.0 0.00 0.00 0.00 36 1013.3
20260502130544 75 315 4.0 7.0 0.00 0.00 0.00 35 1014.5
20260502130340 75 292 6.0 11.0 0.00 0.00 0.00 34 1014.6
20260502130138 75 292 7.0 11.0 0.00 0.00 0.00 34 1014.5
20260502123703 76 315 6.0 11.0 0.00 0.00 0.00 34 1014.6
20260502123501 77 315 6.0 11.0 0.00 0.00 0.00 34 1014.6
20260502123303 77 315 9.0 10.0 0.00 0.00 0.00 35 1014.8
20260502123057 77 315 9.0 10.0 0.00 0.00 0.00 35 1014.5
20260502122854 77 303 6.0 10.0 0.00 0.00 0.00 35 1014.8
20260502122652 77 315 7.0 10.0 0.00 0.00 0.00 35 1014.7
20260502122450 77 315 5.0 10.0 0.00 0.00 0.00 35 1014.8
20260502122248 77 225 6.0 10.0 0.00 0.00 0.00 35 1014.8
20260502121843 77 258 7.0 10.0 0.00 0.00 0.00 34 1014.9
20260502121641 77 292 6.0 10.0 0.00 0.00 0.00 35 1014.8
20260502121438 77 225 6.0 8.0 0.00 0.00 0.00 35 1014.8
20260502121237 77 303 6.0 7.0 0.00 0.00 0.00 36 1014.7
20260502120838 76 225 7.0 9.0 0.00 0.00 0.00
20260502120831 76 225 7.0 9.0 0.00 0.00 0.00 36 1014.8
20260502120427 76 292 9.0 9.0 0.00 0.00 0.00 37 1014.9
20260502120225 76 315 7.0 10.0 0.00 0.00 0.00 37 1014.9
20260502115820 76 0 7.0 11.0 0.00 0.00 0.00 37 1014.9
20260502115618 76 315 10.0 11.0 0.00 0.00 0.00 37 1014.9
20260502115416 76 315 9.0 12.0 0.00 0.00 0.00 37 1014.9
20260502114606 75 337 4.0 9.0 0.00 0.00 0.00 38 1015.2
20260502114404 75 292 5.0 12.0 0.00 0.00 0.00 38 1015.1
20260502114202 75 292 10.0 12.0 0.00 0.00 0.00 38 1015.1
20260502113151 75 315 7.0 14.0 0.00 0.00 0.00 38 1015.0
20260502112949 75 292 10.0 14.0 0.00 0.00 0.00 38 1015.2
20260502112746 75 315 13.0 14.0 0.00 0.00 0.00 39 1015.2
20260502112544 74 303 12.0 12.0 0.00 0.00 0.00 39 1015.3
20260502112140 74 326 7.0 12.0 0.00 0.00 0.00 39 1015.4
20260502111937 74 236 7.0 12.0 0.00 0.00 0.00 38 1015.3
20260502111734 74 292 8.0 11.0 0.00 0.00 0.00 39 1015.3
20260502111532 74 292 8.0 11.0 0.00 0.00 0.00 39 1015.4
20260502111331 74 326 6.0 12.0 0.00 0.00 0.00 39 1015.4
20260502111129 74 315 8.0 12.0 0.00 0.00 0.00 39 1015.4
20260502110926 74 315 7.0 8.0 0.00 0.00 0.00 39 1015.4
20260502110723 73 315 8.0 11.0 0.00 0.00 0.00 38 1015.4
20260502110521 73 0 6.0 11.0 0.00 0.00 0.00 38 1015.3
20260502110319 73 348 11.0 11.0 0.00 0.00 0.00 39 1015.4
20260502110117 73 348 6.0 11.0 0.00 0.00 0.00 39 1015.5
20260502105915 73 236 8.0 11.0 0.00 0.00 0.00 39 1015.5
20260502105517 73 315 7.0 12.0 0.00 0.00 0.00 39 1015.5
20260502105309 73 303 8.0 12.0 0.00 0.00 0.00 39 1015.5
20260502105106 73 315 9.0 13.0 0.00 0.00 0.00 39 1015.6
20260502104702 73 315 12.0 12.0 0.00 0.00 0.00 40 1015.7
20260502104518 73 0 3.0 10.0 0.00 0.00 0.00 40 1015.7
20260502104316 72 0 7.0 7.0 0.00 0.00 0.00 40 1015.8
20260502104115 72 0 6.0 7.0 0.00 0.00 0.00 39 1015.9
20260502103912 72 315 7.0 10.0 0.00 0.00 0.00 40 1015.8
20260502103709 72 315 6.0 10.0 0.00 0.00 0.00 39 1015.9
20260502103507 72 315 9.0 9.0 0.00 0.00 0.00 38 1015.8
20260502103305 72 0 6.0 9.0 0.00 0.00 0.00 38 1015.8
20260502102901 72 0 2.0 9.0 0.00 0.00 0.00 39 1015.9
20260502102658 72 315 7.0 9.0 0.00 0.00 0.00 38 1015.8
20260502102254 72 315 7.0 8.0 0.00 0.00 0.00 38 1015.9
20260502102052 72 0 8.0 8.0 0.00 0.00 0.00 37 1015.9
20260502101849 72 0 4.0 10.0 0.00 0.00 0.00 37 1015.9
20260502101646 72 0 4.0 10.0 0.00 0.00 0.00 37 1015.9
20260502101444 72 0 9.0 10.0 0.00 0.00 0.00 37 1015.9
20260502101242 72 315 4.0 10.0 0.00 0.00 0.00 37 1015.9
20260502100231 73 315 6.0 7.0 0.00 0.00 0.00 37 1015.8
20260502091337 74 315 5.0 7.0 0.00 0.00 0.00 34 1015.9
20260502090932 74 315 5.0 5.0 0.00 0.00 0.00 35 1016.0
20260502090730 74 315 4.0 8.0 0.00 0.00 0.00 35 1016.0
20260502090527 73 315 5.0 8.0 0.00 0.00 0.00 35 1016.0
20260502090325 73 326 8.0 8.0 0.00 0.00 0.00 35 1015.9
20260502090123 73 0 6.0 7.0 0.00 0.00 0.00 35 1016.0
20260502071525 73 292 4.0 4.0 0.00 0.00 0.00 40 1015.7
20260502071322 72 315 3.0 4.0 0.00 0.00 0.00 41 1015.5
20260502071120 72 236 1.0 3.0 0.00 0.00 0.00 41 1015.8
20260502070918 71 315 2.0 127.0 0.00 0.00 0.00 40 1015.7
20260502070716 71 337 3.0 127.0 0.00 0.00 0.00 41 1015.8
20260502070614 71 292 127.0 127.0 0.00 0.00 0.00 41 1015.7
20260502070208 70 315 2.0 126.0 0.00 0.00 0.00 43 1015.7
20260502070006 69 270 1.0 126.0 0.00 0.00 0.00 44 1015.6
20260502065903 69 303 126.0 126.0 0.00 0.00 0.00 45 1015.6
20260502065136 67 292 126.0 126.0 0.00 0.00 0.00 46 1015.6
20260502065020 67 303 1.0 3.0 0.00 0.00 0.00 45 1015.6
20260502064818 66 315 2.0 125.0 0.00 0.00 0.00 45 1015.5
20260502064449 65 303 1.0 3.0 0.00 0.00 0.00 45 1015.6
20260502064247 65 236 2.0 3.0 0.00 0.00 0.00 45 1015.7
20260502064045 64 292 2.0 125.0 0.00 0.00 0.00 46 1015.6
20260502063741 64 225 125.0 125.0 0.00 0.00 0.00 51 1015.6
20260502063542 63 315 0.0 3.0 0.00 0.00 0.00 45 1015.6
20260502062339 61 247 2.0 4.0 0.00 0.00 0.00 46 1015.8
20260502062137 60 315 2.0 4.0 0.00 0.00 0.00 46 1015.6
20260502061935 60 45 3.0 3.0 0.00 0.00 0.00 46 1015.7
20260502061732 60 225 1.0 6.0 0.00 0.00 0.00 46 1015.7
20260502061530 60 247 3.0 6.0 0.00 0.00 0.00 46 1015.7
20260502061024 59 292 129.0 129.0 0.00 0.00 0.00 46 1015.8
20260502060937 59 292 2.0 3.0 0.00 0.00 0.00 46 1015.6
20260502060734 59 247 3.0 3.0 0.00 0.00 0.00 46 1015.7
20260502060532 59 247 2.0 5.0 0.00 0.00 0.00 46 1015.6
20260502060128 59 45 3.0 126.0 0.00 0.00 0.00 47 1015.7
20260502060025 59 236 126.0 126.0 0.00 0.00 0.00 47 1015.7
20260502055923 59 225 1.0 4.0 0.00 0.00 0.00 47 1015.7
20260502055721 59 292 1.0 4.0 0.00 0.00 0.00 47 1015.7
20260502055519 59 337 3.0 4.0 0.00 0.00 0.00 47 1015.8
20260502055317 59 315 4.0 4.0 0.00 0.00 0.00 46 1015.6
20260502055114 58 292 3.0 3.0 0.00 0.00 0.00 47 1015.6
20260502054917 58 247 2.0 3.0 0.00 0.00 0.00 48 1015.7
20260502054710 58 247 1.0 126.0 0.00 0.00 0.00 48 1015.6
20260502054550 58 247 3.0 126.0 0.00 0.00 0.00 50 1015.6
20260502054516 58 247 3.0 126.0 0.00 0.00 0.00 50 1015.6
20260502054406 58 247 126.0 126.0 0.00 0.00 0.00 49 1015.6
20260502054348 58 247 3.0 5.0 0.00 0.00 0.00 48 1015.4
20260502054145 58 281 1.0 6.0 0.00 0.00 0.00 49 1015.5
20260502053539 58 247 1.0 7.0 0.00 0.00 0.00 48 1015.6
20260502053341 58 337 2.0 7.0 0.00 0.00 0.00 48 1015.6
20260502053133 58 236 4.0 7.0 0.00 0.00 0.00 49 1015.7
20260502052931 58 236 5.0 5.0 0.00 0.00 0.00 48 1015.3
20260502052729 58 315 3.0 3.0 0.00 0.00 0.00 48 1015.6
20260502052527 58 348 2.0 3.0 0.00 0.00 0.00 50 1015.6
20260502051920 57 45 1.0 4.0 0.00 0.00 0.00 50 1015.6
20260502051718 57 45 2.0 125.0 0.00 0.00 0.00 50 1015.7
20260502051414 57 292 125.0 125.0 0.00 0.00 0.00 49 1015.6
20260502051202 57 45 4.0 7.0 0.00 0.00 0.00 49 1015.5
20260502050959 57 236 5.0 7.0 0.00 0.00 0.00 50 1015.6
20260502050801 57 247 7.0 7.0 0.00 0.00 0.00 50 1015.7
20260502050555 57 45 5.0 5.0 0.00 0.00 0.00 51 1015.6
20260502050353 57 45 3.0 3.0 0.00 0.00 0.00 51 1015.6
20260502050150 57 247 3.0 3.0 0.00 0.00 0.00 51 1015.5
20260502045948 57 11 1.0 5.0 0.00 0.00 0.00 51 1015.5
20260502045746 57 45 3.0 5.0 0.00 0.00 0.00 51 1015.6
20260502045543 57 45 5.0 7.0 0.00 0.00 0.00 50 1015.4
20260502045510 57 45 4.0 126.0 0.00 0.00 0.00 51 1015.6
20260502045342 57 45 4.0 126.0 0.00 0.00 0.00 51 1015.6
20260502045110 57 225 126.0 126.0 0.00 0.00 0.00 52 1015.3
20260502045037 57 225 126.0 126.0 0.00 0.00 0.00 52 1015.3
20260502044843 57 45 4.0 5.0 0.00 0.00 0.00 52 1015.6
20260502044713 57 45 2.0 3.0 0.00 0.00 0.00 52 1015.4
20260502044637 57 45 2.0 3.0 0.00 0.00 0.00 52 1015.4
20260502044435 57 270 1.0 2.0 0.00 0.00 0.00 52 1015.6
20260502044030 57 337 1.0 1.0 0.00 0.00 0.00 53 1015.3
20260502043626 57 292 0.0 3.0 0.00 0.00 0.00 52 1015.5
20260502043220 57 281 3.0 3.0 0.00 0.00 0.00 52 1015.4
20260502043018 57 292 2.0 3.0 0.00 0.00 0.00 53 1015.4
20260502042615 57 292 3.0 3.0 0.00 0.00 0.00 52 1015.2
20260502042320 57 292 1.0 2.0 0.00 0.00 0.00 53 1015.3
20260502042117 57 315 1.0 2.0 0.00 0.00 0.00 53 1015.2
20260502041915 57 315 2.0 3.0 0.00 0.00 0.00 53 1015.3
20260502041308 57 292 3.0 3.0 0.00 0.00 0.00 54 1015.2
20260502040940 57 315 2.0 2.0 0.00 0.00 0.00 54 1015.5
20260502040904 57 315 2.0 2.0 0.00 0.00 0.00 54 1015.5
20260502040703 57 270 2.0 125.0 0.00 0.00 0.00 54 1015.3
20260502040501 56 326 0.0 125.0 0.00 0.00 0.00 54 1014.9
20260502040357 56 45 125.0 125.0 0.00 0.00 0.00 54 1015.2
20260502040314 56 45 3.0 4.0 0.00 0.00 0.00 54 1015.4
20260502040111 56 45 4.0 4.0 0.00 0.00 0.00 55 1015.4
20260502035707 57 45 3.0 5.0 0.00 0.00 0.00 56 1015.5
20260502035505 56 45 4.0 5.0 0.00 0.00 0.00 56 1015.3
20260502035306 57 45 3.0 4.0 0.00 0.00 0.00 56 1015.0
20260502035100 56 45 4.0 4.0 0.00 0.00 0.00 55 1015.3
20260502034858 56 45 4.0 5.0 0.00 0.00 0.00 55 1015.1
20260502034454 56 45 3.0 4.0 0.00 0.00 0.00 55 1015.5
20260502034049 56 45 4.0 5.0 0.00 0.00 0.00 55 1015.3
20260502033645 56 45 1.0 4.0 0.00 0.00 0.00 55 1015.7
20260502033447 56 45 3.0 4.0 0.00 0.00 0.00 55 1015.7
20260502033038 56 315 2.0 3.0 0.00 0.00 0.00 55 1015.6
20260502032835 56 225 3.0 3.0 0.00 0.00 0.00 55 1015.4
20260502032049 56 0 2.0 3.0 0.00 0.00 0.00 55 1015.7
20260502031847 56 292 3.0 4.0 0.00 0.00 0.00 56 1015.5
20260502031442 56 292 3.0 3.0 0.00 0.00 0.00 56 1015.6
20260502031241 56 315 2.0 3.0 0.00 0.00 0.00 55 1015.7
20260502031038 56 292 1.0 3.0 0.00 0.00 0.00 55 1015.7
20260502030836 56 348 2.0 125.0 0.00 0.00 0.00 55 1015.4
20260502030713 57 292 2.0 125.0 0.00 0.00 0.00 55 1015.5
20260502030633 57 292 2.0 125.0 0.00 0.00 0.00 55 1015.5
20260502030531 56 292 125.0 125.0 0.00 0.00 0.00 55 1015.7
20260502030502 57 303 2.0 2.0 0.00 0.00 0.00 55 1015.9
20260502030307 56 281 2.0 3.0 0.00 0.00 0.00 55 1015.6
20260502030058 56 337 1.0 3.0 0.00 0.00 0.00 55 1015.8
20260502025857 56 281 2.0 3.0 0.00 0.00 0.00 54 1015.8
20260502025736 56 326 1.0 3.0 0.00 0.00 0.00 55 1015.8
20260502025653 56 326 1.0 3.0 0.00 0.00 0.00 55 1015.8
20260502025451 56 292 2.0 2.0 0.00 0.00 0.00 54 1015.7
20260502025249 57 292 1.0 2.0 0.00 0.00 0.00 56 1015.8
20260502025047 57 292 1.0 2.0 0.00 0.00 0.00 55 1015.8
20260502024845 57 315 1.0 1.0 0.00 0.00 0.00 54 1015.9
20260502024702 56 33 2.0 3.0 0.00 0.00 0.00 54 1015.6
20260502024500 56 45 3.0 3.0 0.00 0.00 0.00 55 1015.7
20260502024304 57 45 3.0 3.0 0.00 0.00 0.00 55 1015.6
20260502024056 57 45 2.0 3.0 0.00 0.00 0.00 54 1015.6
20260502023853 57 45 2.0 3.0 0.00 0.00 0.00 55 1015.8
20260502023650 57 292 2.0 3.0 0.00 0.00 0.00 55 1015.8
20260502023448 57 0 3.0 3.0 0.00 0.00 0.00 56 1015.6
20260502023044 57 45 0.0 3.0 0.00 0.00 0.00 56 1015.7
20260502022437 57 45 2.0 3.0 0.00 0.00 0.00 55 1016.0
20260502022235 57 292 1.0 3.0 0.00 0.00 0.00 56 1015.6
20260502022109 57 225 2.0 4.0 0.00 0.00 0.00 56 1015.8
20260502022034 57 225 2.0 4.0 0.00 0.00 0.00 56 1015.8
20260502021831 57 45 3.0 4.0 0.00 0.00 0.00 54 1015.8
20260502021628 57 45 4.0 4.0 0.00 0.00 0.00 55 1015.8
20260502021102 57 348 1.0 126.0 0.00 0.00 0.00 55 1016.1
20260502021022 57 348 1.0 126.0 0.00 0.00 0.00 55 1016.1
20260502020919 57 292 126.0 126.0 0.00 0.00 0.00 55 1015.7
20260502020804 57 292 1.0 2.0 0.00 0.00 0.00 54 1016.1
20260502020634 57 348 2.0 2.0 0.00 0.00 0.00 55 1016.0
20260502020602 57 348 2.0 2.0 0.00 0.00 0.00 55 1016.0
20260502020400 57 337 1.0 5.0 0.00 0.00 0.00 55 1015.9
20260502020157 57 292 3.0 5.0 0.00 0.00 0.00 56 1016.2
20260502015753 57 303 1.0 2.0 0.00 0.00 0.00 55 1015.6
20260502015551 57 348 2.0 2.0 0.00 0.00 0.00 52 1016.3
20260502015349 57 0 2.0 2.0 0.00 0.00 0.00 54 1015.8
20260502015149 57 326 2.0 3.0 0.00 0.00 0.00 54 1015.9
20260502014542 57 326 2.0 3.0 0.00 0.00 0.00 54 1016.1
20260502014344 57 0 1.0 3.0 0.00 0.00 0.00 54 1016.1
20260502014141 57 0 3.0 3.0 0.00 0.00 0.00 54 1016.1
20260502013934 57 45 3.0 3.0 0.00 0.00 0.00 54 1016.0
20260502013530 57 45 1.0 125.0 0.00 0.00 0.00 54 1015.9
20260502013328 57 348 0.0 125.0 0.00 0.00 0.00 55 1016.2
20260502013226 57 22 125.0 125.0 0.00 0.00 0.00 55 1016.0
20260502012913 57 292 2.0 2.0 0.00 0.00 0.00 54 1015.7
20260502012706 57 0 2.0 2.0 0.00 0.00 0.00 54 1016.0
20260502012505 57 348 1.0 1.0 0.00 0.00 0.00 55 1016.0
20260502012302 57 45 1.0 2.0 0.00 0.00 0.00 54 1016.3
20260502012059 58 0 1.0 3.0 0.00 0.00 0.00 55 1016.4
20260502011857 58 22 3.0 3.0 0.00 0.00 0.00 54 1015.9
20260502011453 58 326 2.0 126.0 0.00 0.00 0.00 54 1016.3
20260502011351 58 0 126.0 126.0 0.00 0.00 0.00 54 1016.2
20260502010932 58 33 1.0 2.0 0.00 0.00 0.00 54 1016.5
20260502010527 58 292 1.0 3.0 0.00 0.00 0.00 54 1016.5
20260502010325 58 326 2.0 3.0 0.00 0.00 0.00 55 1016.4
20260502005921 58 0 1.0 3.0 0.00 0.00 0.00 54 1016.4
20260502005718 58 0 2.0 2.0 0.00 0.00 0.00 54 1016.5
20260502005520 58 0 1.0 2.0 0.00 0.00 0.00 54 1016.2
20260502005314 58 0 1.0 3.0 0.00 0.00 0.00 54 1016.7
20260502004909 58 22 3.0 3.0 0.00 0.00 0.00 54 1016.7
20260502004850 58 0 3.0 3.0 0.00 0.00 0.00 54 1016.3
20260502004446 58 292 2.0 3.0 0.00 0.00 0.00 54 1016.8
20260502004040 58 0 3.0 4.0 0.00 0.00 0.00 54 1016.6
20260502003838 58 45 2.0 4.0 0.00 0.00 0.00 55 1016.9
20260502003441 58 45 3.0 127.0 0.00 0.00 0.00 55 1016.9
20260502003434 58 45 3.0 127.0 0.00 0.00 0.00 55 1016.9
20260502003405 58 45 127.0 127.0 0.00 0.00 0.00 54 1016.6
20260502003332 58 45 127.0 127.0 0.00 0.00 0.00 54 1016.6
20260502003053 58 0 1.0 4.0 0.00 0.00 0.00 55 1016.8
20260502002851 58 45 4.0 4.0 0.00 0.00 0.00 54 1017.0
20260502002737 58 0 1.0 4.0 0.00 0.00 0.00 54 1016.8
20260502002649 58 0 1.0 4.0 0.00 0.00 0.00 54 1016.8
20260502002244 58 326 2.0 2.0 0.00 0.00 0.00 54 1016.6
20260502002042 58 292 1.0 2.0 0.00 0.00 0.00 54 1016.7
20260502001840 58 292 2.0 2.0 0.00 0.00 0.00 55 1016.8
20260502001436 58 326 1.0 125.0 0.00 0.00 0.00 54 1016.8
20260502001333 58 45 125.0 125.0 0.00 0.00 0.00 58 1016.9
20260502001215 58 45 1.0 2.0 0.00 0.00 0.00 53 1017.1
20260502001126 58 45 1.0 2.0 0.00 0.00 0.00 53 1017.1
20260502000924 58 315 0.0 1.0 0.00 0.00 0.00 54 1017.0
20260502000519 58 315 1.0 2.0 0.00 0.00 0.00 55 1016.8
20260502000317 58 0 1.0 2.0 0.00 0.00 0.00 56 1017.1
20260501235829 58 292 3.0 4.0 0.00 0.00 0.00 54 1017.0
20260501235714 58 292 3.0 3.0 0.00 0.00 0.00 54 1016.7
20260501235627 58 292 3.0 3.0 0.00 0.00 0.00 54 1016.7
20260501235235 59 303 4.0 5.0 0.00 0.00 0.00 55 1017.1
20260501235222 59 303 4.0 5.0 0.00 0.00 0.00 55 1017.1
20260501234616 59 326 2.0 3.0 0.00 0.00 0.00 54 1016.9
20260501234459 59 292 3.0 3.0 0.00 0.00 0.00 55 1017.0
20260501234414 59 292 3.0 3.0 0.00 0.00 0.00 55 1017.0
20260501234211 59 326 2.0 2.0 0.00 0.00 0.00 55 1016.9
20260501233100 59 45 0.0 3.0 0.00 0.00 0.00 55 1017.1
20260501232858 59 303 0.0 3.0 0.00 0.00 0.00 54 1017.5
20260501232655 59 292 3.0 3.0 0.00 0.00 0.00 55 1017.3
20260501232453 59 303 0.0 4.0 0.00 0.00 0.00 55 1017.3
20260501232323 59 337 1.0 4.0 0.00 0.00 0.00 54 1017.4
20260501232251 59 337 1.0 4.0 0.00 0.00 0.00 54 1017.4
20260501232049 59 45 4.0 4.0 0.00 0.00 0.00 55 1017.3
20260501231857 59 45 2.0 2.0 0.00 0.00 0.00 55 1017.2
20260501231713 60 45 4.0 5.0 0.00 0.00 0.00 53 1017.2
20260501231510 60 45 4.0 5.0 0.00 0.00 0.00 53 1017.4
20260501230701 60 45 2.0 5.0 0.00 0.00 0.00 54 1017.4
20260501230546 60 45 1.0 2.0 0.00 0.00 0.00 55 1017.3
20260501230459 60 45 1.0 2.0 0.00 0.00 0.00 55 1017.3
20260501230054 60 225 0.0 1.0 0.00 0.00 0.00 54 1017.5
20260501225852 60 45 0.0 2.0 0.00 0.00 0.00 55 1017.2
20260501225650 60 45 0.0 126.0 0.00 0.00 0.00 55 1017.4
20260501225448 60 45 2.0 126.0 0.00 0.00 0.00 54 1017.2
20260501225345 60 225 126.0 126.0 0.00 0.00 0.00 56 1017.1
20260501225251 60 225 3.0 3.0 0.00 0.00 0.00 54 1017.5
20260501225049 60 225 2.0 4.0 0.00 0.00 0.00 54 1017.5
20260501224847 60 225 3.0 4.0 0.00 0.00 0.00 53 1017.2
20260501224652 60 45 2.0 124.0 0.00 0.00 0.00 54 1017.5
20260501224340 60 45 124.0 124.0 0.00 0.00 0.00 54 1017.4
20260501224134 60 45 3.0 4.0 0.00 0.00 0.00 54 1017.3
20260501223527 60 45 3.0 4.0 0.00 0.00 0.00 54 1017.4
20260501223325 60 45 4.0 4.0 0.00 0.00 0.00 55 1017.5
20260501223128 60 45 3.0 4.0 0.00 0.00 0.00 54 1017.5
20260501222920 60 45 3.0 4.0 0.00 0.00 0.00 54 1017.5
20260501222718 61 45 1.0 3.0 0.00 0.00 0.00 56 1017.5
20260501222318 61 45 3.0 3.0 0.00 0.00 0.00 53 1017.4
20260501221913 61 45 1.0 3.0 0.00 0.00 0.00 52 1017.6
20260501221706 61 292 1.0 3.0 0.00 0.00 0.00 53 1017.4
20260501221504 61 45 2.0 126.0 0.00 0.00 0.00 52 1017.6
20260501221302 61 45 1.0 126.0 0.00 0.00 0.00 53 1017.6
20260501221200 61 45 126.0 126.0 0.00 0.00 0.00 53 1017.6